Powrót do katalogu

STARLINK-35516

AktywnyŁącznośćVLEO
NORAD 65918·PAYLOAD·🇺🇸 United States

Wystrzelony Oct 8, 2025 z Vandenberg Space Force Base

Loading…

Następne Przeloty (najbliższe 24 godziny)

TLE

ŚwieżeSource: CelesTrak SupGP

Epoka: Sep 15, 2026, 02:27 UTC

1 65918C 25225J   26258.10256944  .00052556  00000+0  15523-2 0  2587
2 65918  53.1594   5.1073 0001033  75.8954 114.0208 15.34375176    18

Śledź STARLINK-35516 w czasie rzeczywistym z AllMySat

Download on the App Store